Flag for U.S.A. Weather past 2 weeks in Casper, Wyoming, U.S.A.

Now
63 °F

Clear.


Feels Like: 63 °F
Forecast: 42 / 62 °F
Wind: 20 mph from Southwest

Location: Natrona County International Airport

Current Time: Oct 25, 2014 at 11:28:49 PM

Latest Report: Oct 25, 2014 at 10:53 PM


Visibility: 10 mi

Pressure: 29.70 "Hg

Humidity: 25%

Dew point: 26 °F

Location of CasperLocation

Historic Weather in Casper — Graph

°F

Casper temperature yesterday

Maximum temperature yesterday: 75 °F (at 1:53 PM)
Minimum temperature yesterday: 41 °F (at 11:53 PM)
Average temperature yesterday: 59 °F

Past Weeks' High & Low Weather Summary

 TemperatureHumidityPressure
High76 °F (Oct 25, 1:53 PM)93% (Oct 12, 6:53 PM)30.25 "Hg (Oct 12, 6:53 PM)
Low28 °F (Oct 17, 5:53 AM)11% (Oct 25, 4:53 PM)29.54 "Hg (Oct 12, 2:53 AM)
Average52 °F45%29.96 "Hg
* Reported Oct 10 9:53 PM — Oct 25 9:53 PM, Casper, Weather by CustomWeather, © 2014

Note: Actual official high and low records may vary slightly from our data, if they occured in-between our weather recording intervals... More about our weather records

Advertising

Casper weather history for previous 24 hours

 ConditionsComfort  
Time TempWeatherWind HumidityBarometerVisibility
9:53 PM
Oct 25
64 °FClear.17 mph23%29.72 "Hg10 mi
8:53 PM64 °FClear.15 mph23%29.75 "Hg10 mi
7:53 PM66 °FClear.14 mph21%29.80 "Hg10 mi
6:53 PM66 °FSunny.16 mph21%29.83 "Hg10 mi
5:53 PM69 °FSunny.16 mph17%29.84 "Hg10 mi
4:53 PM75 °FSunny.16 mph11%29.84 "Hg10 mi
3:53 PM76 °FSunny.24 mph13%29.86 "Hg10 mi
2:53 PM76 °FSunny.20 mph15%29.90 "Hg10 mi
1:53 PM76 °FSunny.20 mph16%29.92 "Hg10 mi
12:53 PM74 °FSunny.17 mph17%29.97 "Hg10 mi
11:53 AM71 °FSunny.17 mph19%30.01 "Hg10 mi
10:53 AM68 °FSunny.17 mph21%30.02 "Hg10 mi
9:53 AM65 °FSunny.16 mph23%30.02 "Hg10 mi
8:53 AM58 °FSunny.7 mph32%30.04 "Hg10 mi
7:53 AM49 °FClear.10 mph43%30.09 "Hg10 mi
6:53 AM47 °FClear.12 mph44%30.09 "Hg10 mi
5:53 AM43 °FClear.No wind51%30.06 "Hg10 mi
4:53 AM47 °FClear.9 mph44%30.03 "Hg10 mi
3:53 AM43 °FClear.7 mph53%30.04 "Hg10 mi
2:53 AM39 °FClear.9 mph67%30.05 "Hg10 mi
1:53 AM40 °FClear.6 mph68%30.06 "Hg10 mi
12:53 AM41 °FClear.12 mph62%30.05 "Hg10 mi
11:53 PM
Oct 24
41 °FClear.9 mph58%30.06 "Hg10 mi
Weather by CustomWeather, © 2014

See weather overviewHow to use our weather pages